W9SIG Weather Reports


time (UTC)temp
C
wind
direction
speed
KPH
gust
KPH
rain 1hr
cm
rain 24hr
cm
rain mn
cm
humidity
%
barometer
mb
20260906052122 23 0 4.8 8.0 0.00 0.00 0.00 1 1015.1
20260906051622 23 0 3.2 8.0 0.00 0.00 0.00 1 1015.2
20260906051122 23 5 1.6 4.8 0.00 0.00 0.00 1 1015.2
20260906050623 23 24 1.6 4.8 0.00 0.00 0.00 1 1015.3
20260906050126 23 41 0.0 3.2 0.00 0.00 0.00 1 1015.2
20260906050121 23 19 0.0 4.8 0.00 0.00 0.00 1 1015.2
20260906045120 23 41 1.6 6.4 0.00 0.00 0.00 1 1015.1
20260906044620 23 41 3.2 6.4 0.00 0.00 0.00 1 1015.0
20260906044120 24 351 1.6 6.4 0.00 0.00 0.00 1 1014.9
20260906043620 24 40 3.2 12.9 0.00 0.00 0.00 1 1014.7
20260906043120 24 40 4.8 12.9 0.00 0.00 0.00 1 1014.7
20260906042620 24 39 3.2 11.3 0.00 0.00 0.00 1 1014.7
20260906042120 24 49 3.2 9.7 0.00 0.00 0.00 1 1014.7
20260906041620 24 5 3.2 11.3 0.00 0.00 0.00 1 1014.7
20260906041120 24 50 4.8 11.3 0.00 0.00 0.00 1 1014.7
20260906040619 24 343 3.2 9.7 0.00 0.00 0.00 1 1014.8
20260906040118 24 331 3.2 9.7 0.00 0.00 0.00 1 1014.8
20260906035618 24 355 3.2 12.9 0.00 0.00 0.00 1 1014.7
20260906035118 24 348 4.8 12.9 0.00 0.00 0.00 1 1014.7
20260906034615 25 344 3.2 11.3 0.00 0.00 0.00 1 1014.7
20260906034115 25 28 4.8 17.7 0.00 0.00 0.00 1 1014.7
20260906033613 25 17 6.4 17.7 0.00 0.00 0.00 1 1014.7
20260906033114 25 70 4.8 14.5 0.00 0.00 0.00 1 1014.7
20260906032613 25 46 6.4 14.5 0.00 0.00 0.00 1 1014.6
20260906032114 25 5 6.4 14.5 0.00 0.00 0.00 1 1014.7
20260906031614 25 5 3.2 14.5 0.00 0.00 0.00 1 1014.6
20260906031114 25 118 4.8 11.3 0.00 0.00 0.00 1 1014.7
20260906030614 25 328 3.2 11.3 0.00 0.00 0.00 1 1014.6
20260906030120 26 351 4.8 12.9 0.00 0.00 0.00 1 1014.6
20260906030114 26 38 3.2 6.4 0.00 0.00 0.00 1 1014.7
20260906025614 26 5 4.8 12.9 0.00 0.00 0.00 1 1014.7
20260906024615 26 22 4.8 12.9 0.00 0.00 0.00 1 1014.5
20260906024115 26 15 4.8 14.5 0.00 0.00 0.00 1 1014.5
20260906023614 26 19 4.8 14.5 0.00 0.00 0.00 1 1014.5
20260906023114 26 342 6.4 14.5 0.00 0.00 0.00 1 1014.4
20260906022614 26 14 6.4 12.9 0.00 0.00 0.00 1 1014.3
20260906022119 26 327 6.4 12.9 0.00 0.00 0.00 1 1014.1
20260906022114 26 344 6.4 14.5 0.00 0.00 0.00 1 1014.3
20260906021614 26 355 4.8 14.5 0.00 0.00 0.00 1 1014.2
20260906020614 27 15 8.0 19.3 0.00 0.00 0.00 1 1014.1
20260906020115 27 18 4.8 19.3 0.00 0.00 0.00 1 1014.1
20260906015619 27 15 4.8 16.1 0.00 0.00 0.00 1 1014.0
20260906015615 27 19 3.2 8.0 0.00 0.00 0.00 1 1014.1
20260906014615 27 355 4.8 17.7 0.00 0.00 0.00 1 1013.9
20260906014115 27 5 4.8 17.7 0.00 0.00 0.00 1 1013.7
20260906013615 27 25 6.4 14.5 0.00 0.00 0.00 1 1013.6
20260906013119 27 0 4.8 19.3 0.00 0.00 0.00 1 1013.6
20260906013115 27 339 6.4 19.3 0.00 0.00 0.00 1 1013.6
20260906012114 27 355 4.8 16.1 0.00 0.00 0.00 1 1013.6
20260906011614 27 355 4.8 17.7 0.00 0.00 0.00 1 1013.6
20260906011114 28 5 6.4 17.7 0.00 0.00 0.00 1 1013.5
20260906010615 28 355 6.4 17.7 0.00 0.00 0.00 1 1013.4
20260906010119 28 5 6.4 14.5 0.00 0.00 0.00 1 1013.1
20260906010114 28 282 4.8 14.5 0.00 0.00 0.00 1 1013.3
20260906005719 28 5 4.8 14.5 0.00 0.00 0.00 1 1013.0
20260906004613 28 35 4.8 12.9 0.00 0.00 0.00 1 1012.9
20260906004113 28 49 3.2 12.9 0.00 0.00 0.00 1 1012.9
20260906003613 28 5 3.2 9.7 0.00 0.00 0.00 1 1012.9
20260906003116 28 24 1.6 3.2 0.00 0.00 0.00 1 1012.9
20260906003112 28 18 1.6 9.7 0.00 0.00 0.00 1 1012.9
20260906002111 29 20 0.0 3.2 0.00 0.00 0.00 1 1013.0
20260906001611 29 20 0.0 1.6 0.00 0.00 0.00 1 1012.9
20260906001116 30 20 0.0 0.0 0.00 0.00 0.00 1 1012.9
20260906001111 29 20 0.0 1.6 0.00 0.00 0.00 1 1012.9
20260906000611 30 20 0.0 0.0 0.00 0.00 0.00 1 1012.9
20260905235611 30 20 0.0 0.0 0.00 0.00 0.00 1 1012.8
20260905235112 31 20 0.0 1.6 0.00 0.00 0.00 1 1012.9
20260905235108 31 20 0.0 1.6 0.00 0.00 0.00 1 1012.8
20260905234107 31 20 0.0 0.0 0.00 0.00 0.00 1 1012.8
20260905233607 31 20 0.0 0.0 0.00 0.00 0.00 1 1012.8
20260905233107 32 20 0.0 1.6 0.00 0.00 0.00 1 1012.8
20260905232607 32 20 0.0 1.6 0.00 0.00 0.00 1 1012.7
20260905232107 32 20 0.0 1.6 0.00 0.00 0.00 4 1012.7
20260905231613 33 20 0.0 3.2 0.00 0.00 0.00 25 1012.5
20260905231609 32 20 0.0 3.2 0.00 0.00 0.00 18 1012.6
20260905230607 33 19 0.0 1.6 0.00 0.00 0.00 26 1012.5
20260905230107 33 19 0.0 1.6 0.00 0.00 0.00 36 1012.5
20260905225605 33 19 0.0 1.6 0.00 0.00 0.00 40 1012.4
20260905225105 34 19 1.6 4.8 0.00 0.00 0.00 42 1012.4
20260905224605 34 19 1.6 4.8 0.00 0.00 0.00 42 1012.5
20260905224105 34 19 1.6 3.2 0.00 0.00 0.00 38 1012.5
20260905223605 34 19 1.6 4.8 0.00 0.00 0.00 35 1012.4
20260905223105 34 19 0.0 4.8 0.00 0.00 0.00 27 1012.4
20260905222605 34 13 0.0 1.6 0.00 0.00 0.00 22 1012.3
20260905222104 34 13 0.0 3.2 0.00 0.00 0.00 29 1012.3
20260905221605 34 13 1.6 6.4 0.00 0.00 0.00 33 1012.4
20260905221108 34 13 1.6 6.4 0.00 0.00 0.00 37 1012.6
20260905221104 34 0 1.6 6.4 0.00 0.00 0.00 29 1012.6
20260905220708 34 5 1.6 6.4 0.00 0.00 0.00 45 1012.5
20260905215603 34 5 1.6 4.8 0.00 0.00 0.00 42 1012.6
20260905214603 34 5 1.6 8.0 0.00 0.00 0.00 47 1012.5
20260905214103 34 0 1.6 8.0 0.00 0.00 0.00 46 1012.6
20260905213603 34 42 1.6 4.8 0.00 0.00 0.00 47 1012.6
20260905213103 34 45 1.6 8.0 0.00 0.00 0.00 36 1012.7
20260905212605 34 74 1.6 8.0 0.00 0.00 0.00 39 1012.5
20260905212600 34 49 1.6 4.8 0.00 0.00 0.00 44 1012.5
20260905211559 34 26 1.6 3.2 0.00 0.00 0.00 44 1012.7
20260905211103 34 26 0.0 4.8 0.00 0.00 0.00 42 1012.7
20260905211059 34 26 0.0 4.8 0.00 0.00 0.00 41 1012.7
20260905210059 34 11 0.0 1.6 0.00 0.00 0.00 34 1012.7
20260905205559 34 11 0.0 3.2 0.00 0.00 0.00 41 1012.8
20260905205059 34 11 0.0 3.2 0.00 0.00 0.00 18 1012.7
20260905204559 33 11 1.6 8.0 0.00 0.00 0.00 30 1012.8
20260905204058 33 11 3.2 8.0 0.00 0.00 0.00 41 1013.0
20260905203558 33 98 1.6 4.8 0.00 0.00 0.00 29 1013.0
20260905203057 33 99 0.0 3.2 0.00 0.00 0.00 18 1013.1
20260905202557 34 99 0.0 3.2 0.00 0.00 0.00 33 1013.0
20260905202101 34 99 1.6 4.8 0.00 0.00 0.00 43 1013.4
20260905202057 34 99 0.0 4.8 0.00 0.00 0.00 36 1013.1
20260905201057 35 50 1.6 6.4 0.00 0.00 0.00 49 1013.4
20260905200555 35 51 1.6 6.4 0.00 0.00 0.00 50 1013.4
20260905200053 35 355 1.6 6.4 0.00 0.00 0.00 46 1013.4
20260905195553 35 355 1.6 6.4 0.00 0.00 0.00 51 1013.4
20260905195053 35 49 1.6 4.8 0.00 0.00 0.00 49 1013.5
20260905194553 35 25 3.2 6.4 0.00 0.00 0.00 49 1013.5
20260905194053 35 26 3.2 8.0 0.00 0.00 0.00 51 1013.5
20260905193551 35 332 3.2 8.0 0.00 0.00 0.00 51 1013.5
20260905193051 35 28 3.2 6.4 0.00 0.00 0.00 51 1013.5
20260905192551 35 82 1.6 4.8 0.00 0.00 0.00 48 1013.6
20260905192054 35 42 1.6 6.4 0.00 0.00 0.00 47 1013.7
20260905192050 35 14 1.6 6.4 0.00 0.00 0.00 51 1013.7
20260905191055 35 63 1.6 8.0 0.00 0.00 0.00 51 1013.8
20260905191051 35 31 1.6 8.0 0.00 0.00 0.00 51 1013.7
20260905190050 35 42 1.6 4.8 0.00 0.00 0.00 50 1013.9
20260905185550 35 13 3.2 6.4 0.00 0.00 0.00 48 1014.1
20260905185050 35 221 3.2 8.0 0.00 0.00 0.00 50 1014.1
20260905184550 35 30 1.6 8.0 0.00 0.00 0.00 49 1014.2
20260905184051 35 251 1.6 8.0 0.00 0.00 0.00 49 1014.2
20260905183551 34 54 3.2 6.4 0.00 0.00 0.00 51 1014.3
20260905183051 34 311 3.2 8.0 0.00 0.00 0.00 45 1014.3
20260905182551 34 236 3.2 8.0 0.00 0.00 0.00 49 1014.4
20260905182051 34 218 3.2 8.0 0.00 0.00 0.00 50 1014.5
20260905181551 34 199 3.2 6.4 0.00 0.00 0.00 49 1014.5
20260905181051 34 313 1.6 6.4 0.00 0.00 0.00 48 1014.6
20260905180551 34 154 1.6 6.4 0.00 0.00 0.00 44 1014.7
20260905180050 34 161 1.6 6.4 0.00 0.00 0.00 48 1014.7
20260905175551 33 135 1.6 8.0 0.00 0.00 0.00 37 1014.7
20260905175051 33 220 1.6 8.0 0.00 0.00 0.00 39 1014.8
20260905174555 33 130 1.6 6.4 0.00 0.00 0.00 24 1014.8
20260905174551 33 164 1.6 3.2 0.00 0.00 0.00 39 1014.9
20260905173550 33 276 3.2 6.4 0.00 0.00 0.00 33 1014.8
20260905173050 33 254 3.2 4.8 0.00 0.00 0.00 44 1014.8
20260905172556 32 115 3.2 12.9 0.00 0.00 0.00 35 1015.0
20260905172551 33 265 1.6 6.4 0.00 0.00 0.00 42 1014.9
20260905172050 32 208 3.2 12.9 0.00 0.00 0.00 41 1015.0
20260905171054 32 109 3.2 11.3 0.00 0.00 0.00 46 1015.1
20260905171050 32 109 3.2 12.9 0.00 0.00 0.00 44 1015.1
20260905170054 32 150 3.2 8.0 0.00 0.00 0.00 32 1015.0
20260905170050 32 279 3.2 8.0 0.00 0.00 0.00 36 1015.0
20260905165050 32 146 3.2 6.4 0.00 0.00 0.00 40 1015.0
20260905164550 32 263 3.2 8.0 0.00 0.00 0.00 34 1015.0
20260905164054 31 161 1.6 8.0 0.00 0.00 0.00 37 1015.2
20260905164050 32 171 3.2 8.0 0.00 0.00 0.00 26 1015.2
20260905163050 31 158 3.2 8.0 0.00 0.00 0.00 31 1015.3
20260905162550 31 171 3.2 8.0 0.00 0.00 0.00 36 1015.4
20260905162048 31 350 3.2 6.4 0.00 0.00 0.00 36 1015.4
20260905161548 31 190 3.2 9.7 0.00 0.00 0.00 28 1015.5
20260905161048 30 209 3.2 9.7 0.00 0.00 0.00 38 1015.5
20260905160547 30 165 3.2 11.3 0.00 0.00 0.00 33 1015.5
20260905160048 30 262 3.2 11.3 0.00 0.00 0.00 30 1015.5
20260905155548 30 217 1.6 6.4 0.00 0.00 0.00 12 1015.5
20260905155048 30 286 3.2 11.3 0.00 0.00 0.00 15 1015.5
20260905154548 29 300 3.2 11.3 0.00 0.00 0.00 29 1015.3
20260905154048 29 280 4.8 11.3 0.00 0.00 0.00 22 1015.4
20260905153547 29 202 3.2 11.3 0.00 0.00 0.00 16 1015.5
20260905153046 28 326 1.6 11.3 0.00 0.00 0.00 7 1015.6
20260905152546 28 111 1.6 8.0 0.00 0.00 0.00 4 1015.7
20260905152046 28 89 1.6 11.3 0.00 0.00 0.00 12 1015.9
20260905151547 28 259 1.6 11.3 0.00 0.00 0.00 1 1015.9
20260905151047 27 331 3.2 11.3 0.00 0.00 0.00 1 1015.8
20260905150546 27 166 3.2 11.3 0.00 0.00 0.00 1 1015.8
20260905150046 27 179 3.2 12.9 0.00 0.00 0.00 1 1015.8
20260905145546 26 115 3.2 12.9 0.00 0.00 0.00 1 1015.8
20260905145046 26 130 3.2 11.3 0.00 0.00 0.00 1 1015.7
20260905144546 26 294 3.2 11.3 0.00 0.00 0.00 1 1015.8
20260905144045 25 9 3.2 11.3 0.00 0.00 0.00 1 1015.7
20260905143546 25 355 3.2 11.3 0.00 0.00 0.00 1 1015.8
20260905143046 25 269 3.2 9.7 0.00 0.00 0.00 1 1015.7
20260905142546 25 110 4.8 9.7 0.00 0.00 0.00 1 1015.8
20260905142044 25 350 3.2 12.9 0.00 0.00 0.00 1 1016.0
20260905141544 25 17 3.2 12.9 0.00 0.00 0.00 1 1016.0
20260905141044 25 215 3.2 12.9 0.00 0.00 0.00 1 1016.0
20260905140544 24 34 4.8 16.1 0.00 0.00 0.00 1 1016.1
20260905140041 24 9 3.2 16.1 0.00 0.00 0.00 1 1016.1
20260905135545 24 238 3.2 12.9 0.00 0.00 0.00 1 1016.0
20260905135541 24 284 1.6 9.7 0.00 0.00 0.00 1 1016.0
20260905134545 24 135 3.2 12.9 0.00 0.00 0.00 1 1015.9
20260905134541 24 20 3.2 12.9 0.00 0.00 0.00 1 1016.0
20260905133541 24 355 4.8 12.9 0.00 0.00 0.00 1 1015.9
20260905133041 24 320 3.2 12.9 0.00 0.00 0.00 1 1016.0
20260905132541 24 12 3.2 11.3 0.00 0.00 0.00 1 1015.9
20260905132042 24 39 3.2 11.3 0.00 0.00 0.00 1 1015.8
20260905131542 24 22 4.8 19.3 0.00 0.00 0.00 1 1015.7
20260905131044 24 350 6.4 20.9 0.00 0.00 0.00 1 1015.6
20260905131040 24 77 6.4 20.9 0.00 0.00 0.00 1 1015.7
20260905130039 24 89 4.8 14.5 0.00 0.00 0.00 1 1015.8
20260905125540 23 15 6.4 14.5 0.00 0.00 0.00 1 1015.8
20260905125043 23 89 0.0 4.8 0.00 0.00 0.00 1 1015.6
20260905125039 23 349 3.2 14.5 0.00 0.00 0.00 1 1015.7
20260905124039 23 169 0.0 0.0 0.00 0.00 0.00 1 1015.2
20260905123539 23 169 0.0 0.0 0.00 0.00 0.00 1 1015.1
20260905123039 23 169 0.0 0.0 0.00 0.00 0.00 1 1015.1
20260905122539 23 169 0.0 0.0 0.00 0.00 0.00 1 1015.0
20260905122039 23 169 0.0 0.0 0.00 0.00 0.00 1 1015.1
20260905121543 23 169 0.0 1.6 0.00 0.00 0.00 1 1015.0
20260905121539 23 169 0.0 1.6 0.00 0.00 0.00 1 1015.0
20260905120539 23 169 0.0 0.0 0.00 0.00 0.00 1 1014.8
20260905120043 23 169 0.0 3.2 0.00 0.00 0.00 1 1014.9
20260905120039 23 169 0.0 1.6 0.00 0.00 0.00 1 1014.8
20260905115039 23 169 1.6 3.2 0.00 0.00 0.00 1 1014.8
20260905114539 23 169 0.0 3.2 0.00 0.00 0.00 1 1014.9
20260905114039 23 169 0.0 3.2 0.00 0.00 0.00 1 1015.0
20260905113539 23 169 0.0 3.2 0.00 0.00 0.00 1 1015.0
20260905113043 23 169 0.0 0.0 0.00 0.00 0.00 1 1014.8
20260905113039 23 169 0.0 0.0 0.00 0.00 0.00 1 1015.0
20260905112037 23 169 0.0 1.6 0.00 0.00 0.00 1 1014.9
20260905111537 23 169 0.0 1.6 0.00 0.00 0.00 1 1014.7
20260905111037 23 169 0.0 0.0 0.00 0.00 0.00 1 1014.7
20260905110537 23 169 0.0 0.0 0.00 0.00 0.00 1 1014.6
20260905110038 23 169 0.0 0.0 0.00 0.00 0.00 1 1014.5
20260905105538 23 169 0.0 0.0 0.00 0.00 0.00 1 1014.5
20260905105037 23 169 0.0 0.0 0.00 0.00 0.00 1 1014.6
20260905104536 23 169 0.0 0.0 0.00 0.00 0.00 1 1014.6
20260905104035 23 169 0.0 0.0 0.00 0.00 0.00 1 1014.6
20260905103540 23 169 0.0 0.0 0.00 0.00 0.00 1 1014.6
20260905103535 23 169 0.0 0.0 0.00 0.00 0.00 1 1014.5
20260905102534 23 169 0.0 0.0 0.00 0.00 0.00 1 1014.6
20260905102032 23 169 0.0 1.6 0.00 0.00 0.00 1 1014.6
20260905101539 23 169 0.0 3.2 0.00 0.00 0.00 1 1014.6
20260905101531 23 169 0.0 3.2 0.00 0.00 0.00 1 1014.6
20260905101031 23 169 0.0 3.2 0.00 0.00 0.00 1 1014.7
20260905100642 23 169 0.0 3.2 0.00 0.00 0.00 1 1014.6
20260905100531 23 169 0.0 0.0 0.00 0.00 0.00 1 1014.6
20260905095029 23 169 0.0 3.2 0.00 0.00 0.00 1 1014.7
20260905094530 23 169 0.0 0.0 0.00 0.00 0.00 1 1014.6
20260905094029 23 169 0.0 0.0 0.00 0.00 0.00 1 1014.6
20260905093529 23 169 0.0 0.0 0.00 0.00 0.00 1 1014.6
20260905093029 23 169 0.0 0.0 0.00 0.00 0.00 1 1014.5
20260905092529 23 169 0.0 0.0 0.00 0.00 0.00 1 1014.4
20260905092029 23 169 0.0 0.0 0.00 0.00 0.00 1 1014.4
20260905091531 23 169 0.0 0.0 0.00 0.00 0.00 1 1014.4
20260905091527 23 169 0.0 0.0 0.00 0.00 0.00 1 1014.3
20260905090527 23 169 0.0 0.0 0.00 0.00 0.00 1 1014.3
20260905090027 23 169 0.0 0.0 0.00 0.00 0.00 1 1014.2
20260905085527 23 169 0.0 0.0 0.00 0.00 0.00 1 1014.2
20260905085031 23 169 0.0 0.0 0.00 0.00 0.00 1 1014.2
20260905085027 23 169 0.0 0.0 0.00 0.00 0.00 1 1014.2
20260905084027 23 169 0.0 0.0 0.00 0.00 0.00 1 1014.1
20260905083528 23 169 0.0 0.0 0.00 0.00 0.00 1 1014.1
20260905083026 23 169 0.0 0.0 0.00 0.00 0.00 1 1014.0
20260905082525 23 169 0.0 0.0 0.00 0.00 0.00 1 1014.0
20260905082025 23 169 0.0 0.0 0.00 0.00 0.00 1 1014.0
20260905081529 23 169 0.0 0.0 0.00 0.00 0.00 1 1014.0
20260905081525 23 169 0.0 0.0 0.00 0.00 0.00 1 1014.0
20260905080525 23 169 0.0 0.0 0.00 0.00 0.00 1 1014.0
20260905080025 23 169 0.0 0.0 0.00 0.00 0.00 1 1014.0
20260905075529 24 169 0.0 0.0 0.00 0.00 0.00 1 1013.9
20260905075525 23 169 0.0 0.0 0.00 0.00 0.00 1 1014.0
20260905074524 24 169 0.0 0.0 0.00 0.00 0.00 1 1014.0
20260905074025 24 169 0.0 0.0 0.00 0.00 0.00 1 1014.0
20260905073525 24 169 0.0 0.0 0.00 0.00 0.00 1 1014.0
20260905073025 24 169 0.0 0.0 0.00 0.00 0.00 1 1013.9
20260905072524 24 169 0.0 0.0 0.00 0.00 0.00 1 1014.0
20260905072025 24 169 0.0 0.0 0.00 0.00 0.00 1 1014.1
20260905071525 24 169 0.0 0.0 0.00 0.00 0.00 1 1014.1
20260905071024 24 169 0.0 0.0 0.00 0.00 0.00 1 1014.1
20260905070529 24 169 0.0 0.0 0.00 0.00 0.00 1 1014.3
20260905070524 24 169 0.0 0.0 0.00 0.00 0.00 1 1014.2
20260905065524 24 169 0.0 0.0 0.00 0.00 0.00 1 1014.3
20260905065028 24 169 0.0 0.0 0.00 0.00 0.00 1 1014.4
20260905065024 24 169 0.0 0.0 0.00 0.00 0.00 1 1014.3
20260905064627 24 169 0.0 0.0 0.00 0.00 0.00 1 1014.5
20260905063522 24 169 0.0 0.0 0.00 0.00 0.00 1 1014.5
20260905063022 24 169 0.0 0.0 0.00 0.00 0.00 1 1014.5
20260905062522 24 169 0.0 0.0 0.00 0.00 0.00 1 1014.6
20260905062026 24 169 0.0 0.0 0.00 0.00 0.00 1 1014.7
20260905062022 24 169 0.0 0.0 0.00 0.00 0.00 1 1014.6
20260905061626 25 169 0.0 0.0 0.00 0.00 0.00 1 1014.7
20260905060520 25 169 0.0 0.0 0.00 0.00 0.00 1 1014.7
20260905060020 25 169 0.0 0.0 0.00 0.00 0.00 1 1014.8
20260905055520 25 169 0.0 0.0 0.00 0.00 0.00 1 1014.8
20260905055020 25 169 0.0 0.0 0.00 0.00 0.00 1 1014.7
20260905054527 25 169 0.0 0.0 0.00 0.00 0.00 1 1014.6
20260905054521 25 169 0.0 0.0 0.00 0.00 0.00 1 1014.8
20260905054021 25 169 0.0 0.0 0.00 0.00 0.00 1 1014.8
20260905053521 25 169 0.0 0.0 0.00 0.00 0.00 1 1014.8
20260905053021 25 169 0.0 0.0 0.00 0.00 0.00 1 1014.7